Time,TemperatureF,DewpointF,PressureIn,WindDirection,WindDirectionDegrees,WindSpeedMPH,WindSpeedGustMPH,Humidity,HourlyPrecipIn,Conditions,Clouds,dailyrainin,SoftwareType,DateUTC
2013-04-01 00:13:00,31.9,29.9,30.19,NE,50,0.0,3.0,92,0.00,CLR,,0.00,WeatherDisplay:10.37,2013-04-01 08:13:00,
2013-04-01 00:28:00,31.6,29.5,30.18,NNE,22,0.0,2.0,92,0.00,CLR,,0.00,WeatherDisplay:10.37,2013-04-01 08:28:00,
2013-04-01 00:43:00,31.4,29.3,30.18,NNE,21,0.0,0.0,92,0.00,CLR,,0.00,WeatherDisplay:10.37,2013-04-01 08:43:00,
2013-04-01 00:58:00,31.2,29.1,30.18,NE,44,1.0,2.0,92,0.00,CLR,,0.00,WeatherDisplay:10.37,2013-04-01 08:58:00,
2013-04-01 01:13:00,31.0,28.9,30.18,ENE,64,0.0,1.0,92,0.00,CLR,,0.00,WeatherDisplay:10.37,2013-04-01 09:13:00,
2013-04-01 01:28:00,30.7,28.9,30.18,ENE,64,0.0,0.0,93,0.00,CLR,,0.00,WeatherDisplay:10.37,2013-04-01 09:28:00,
2013-04-01 01:43:00,30.4,28.6,30.18,ENE,64,0.0,0.0,93,0.00,CLR,,0.00,WeatherDisplay:10.37,2013-04-01 09:43:00,
2013-04-01 01:58:00,30.6,29.1,30.18,ENE,64,0.0,0.0,94,0.00,CLR,,0.00,WeatherDisplay:10.37,2013-04-01 09:58:00,
2013-04-01 02:13:00,30.4,29.2,30.17,ENE,64,0.0,0.0,95,0.00,CLR,,0.00,WeatherDisplay:10.37,2013-04-01 10:13:00,
2013-04-01 02:28:00,30.4,29.2,30.17,WNW,296,0.0,2.0,95,0.00,CLR,,0.00,WeatherDisplay:10.37,2013-04-01 10:28:00,
2013-04-01 02:43:00,30.5,29.2,30.17,West,277,0.0,0.0,95,0.00,CLR,,0.00,WeatherDisplay:10.37,2013-04-01 10:43:00,
2013-04-01 02:58:00,30.4,29.1,30.17,West,277,0.0,0.0,95,0.00,CLR,,0.00,WeatherDisplay:10.37,2013-04-01 10:58:00,
2013-04-01 03:13:00,30.2,29.2,30.17,NNW,344,0.0,2.0,96,0.00,CLR,,0.00,WeatherDisplay:10.37,2013-04-01 11:13:00,
2013-04-01 03:28:00,30.0,29.0,30.17,NW,325,0.0,2.0,96,0.00,CLR,,0.00,WeatherDisplay:10.37,2013-04-01 11:28:00,
2013-04-01 03:43:00,29.7,28.7,30.17,NW,324,0.0,3.0,96,0.00,CLR,,0.00,WeatherDisplay:10.37,2013-04-01 11:43:00,
2013-04-01 03:58:00,29.3,28.3,30.17,North,6,1.0,3.0,96,0.00,CLR,,0.00,WeatherDisplay:10.37,2013-04-01 11:58:00,
2013-04-01 04:13:00,29.2,28.2,30.16,NNE,27,1.0,3.0,96,0.00,CLR,,0.00,WeatherDisplay:10.37,2013-04-01 12:13:00,
2013-04-01 04:28:00,29.0,28.0,30.16,NNE,24,0.0,4.0,96,0.00,CLR,,0.00,WeatherDisplay:10.37,2013-04-01 12:28:00,
2013-04-01 04:43:00,28.7,27.7,30.16,NE,41,2.0,4.0,96,0.00,CLR,,0.00,WeatherDisplay:10.37,2013-04-01 12:43:00,
2013-04-01 04:58:00,28.6,27.6,30.17,NE,35,2.0,6.0,96,0.00,CLR,,0.00,WeatherDisplay:10.37,2013-04-01 12:58:00,
2013-04-01 05:13:00,28.6,27.6,30.16,NNE,25,1.0,5.0,96,0.00,CLR,,0.00,WeatherDisplay:10.37,2013-04-01 13:13:00,
2013-04-01 05:28:00,28.5,27.5,30.16,NNW,334,0.0,3.0,96,0.00,CLR,,0.00,WeatherDisplay:10.37,2013-04-01 13:28:00,
2013-04-01 05:43:00,28.3,27.3,30.16,WNW,296,0.0,2.0,96,0.00,CLR,,0.00,WeatherDisplay:10.37,2013-04-01 13:43:00,
2013-04-01 05:58:00,28.1,27.1,30.16,NE,51,1.0,3.0,96,0.00,CLR,,0.00,WeatherDisplay:10.37,2013-04-01 13:58:00,
2013-04-01 06:13:00,27.8,26.8,30.16,NE,53,2.0,5.0,96,0.00,CLR,,0.00,WeatherDisplay:10.37,2013-04-01 14:13:00,
2013-04-01 06:28:00,27.4,26.4,30.15,NE,52,2.0,4.0,96,0.00,CLR,,0.00,WeatherDisplay:10.37,2013-04-01 14:28:00,
2013-04-01 06:43:00,26.7,25.7,30.15,NE,55,2.0,5.0,96,0.00,CLR,,0.00,WeatherDisplay:10.37,2013-04-01 14:43:00,
2013-04-01 06:58:00,26.4,25.4,30.15,NE,44,1.0,6.0,96,0.00,CLR,,0.00,WeatherDisplay:10.37,2013-04-01 14:58:00,
2013-04-01 07:13:00,26.6,25.9,30.15,NNW,348,1.0,3.0,97,0.00,CLR,,0.00,WeatherDisplay:10.37,2013-04-01 15:13:00,
2013-04-01 07:28:00,26.9,26.2,30.15,North,352,1.0,3.0,97,0.00,CLR,,0.00,WeatherDisplay:10.37,2013-04-01 15:28:00,
2013-04-01 07:43:00,26.7,26.0,30.15,NE,43,1.0,4.0,97,0.00,CLR,,0.00,WeatherDisplay:10.37,2013-04-01 15:43:00,
2013-04-01 07:58:00,26.5,25.7,30.15,NE,45,2.0,5.0,97,0.00,CLR,,0.00,WeatherDisplay:10.37,2013-04-01 15:58:00,
2013-04-01 08:13:00,26.5,25.7,30.15,ENE,76,2.0,5.0,97,0.00,CLR,,0.00,WeatherDisplay:10.37,2013-04-01 16:13:00,
2013-04-01 08:28:00,26.7,26.0,30.15,ENE,58,2.0,5.0,97,0.00,CLR,,0.00,WeatherDisplay:10.37,2013-04-01 16:28:00,
2013-04-01 08:43:00,27.8,27.1,30.15,North,349,0.0,2.0,97,0.00,CLR,,0.00,WeatherDisplay:10.37,2013-04-01 16:43:00,
2013-04-01 08:58:00,28.3,27.6,30.15,NNW,346,1.0,2.0,97,0.00,CLR,,0.00,WeatherDisplay:10.37,2013-04-01 16:58:00,
2013-04-01 09:13:00,28.6,27.9,30.15,NNW,329,1.0,2.0,97,0.00,CLR,,0.00,WeatherDisplay:10.37,2013-04-01 17:13:00,
2013-04-01 09:28:00,28.9,27.9,30.14,NW,315,0.0,0.0,96,0.00,CLR,,0.00,WeatherDisplay:10.37,2013-04-01 17:28:00,
2013-04-01 09:43:00,29.2,28.2,30.14,NW,312,0.0,2.0,96,0.00,CLR,,0.00,WeatherDisplay:10.37,2013-04-01 17:43:00,
2013-04-01 09:58:00,29.4,28.4,30.14,NNW,337,0.0,2.0,96,0.00,CLR,,0.00,WeatherDisplay:10.37,2013-04-01 17:58:00,
2013-04-01 10:13:00,29.5,28.5,30.14,NNW,343,0.0,0.0,96,0.00,CLR,,0.00,WeatherDisplay:10.37,2013-04-01 18:13:00,
2013-04-01 10:28:00,30.0,29.0,30.14,NNW,343,0.0,0.0,96,0.00,CLR,,0.00,WeatherDisplay:10.37,2013-04-01 18:28:00,
2013-04-01 10:43:00,31.0,30.0,30.14,NNW,339,2.0,3.0,96,0.00,CLR,,0.00,WeatherDisplay:10.37,2013-04-01 18:43:00,
2013-04-01 10:58:00,31.7,30.4,30.14,NE,52,1.0,5.0,95,0.00,CLR,,0.00,WeatherDisplay:10.37,2013-04-01 18:58:00,
2013-04-01 11:13:00,32.1,30.6,30.13,NE,42,1.0,5.0,94,0.00,CLR,,0.00,WeatherDisplay:10.37,2013-04-01 19:13:00,
2013-04-01 11:28:00,32.7,30.7,30.13,ENE,63,1.0,5.0,92,0.00,CLR,,0.00,WeatherDisplay:10.37,2013-04-01 19:28:00,
2013-04-01 11:43:00,33.6,31.0,30.13,NNE,26,1.0,4.0,90,0.00,CLR,,0.00,WeatherDisplay:10.37,2013-04-01 19:43:00,
2013-04-01 11:58:00,33.9,30.7,30.13,NW,312,0.0,6.0,88,0.00,CLR,,0.00,WeatherDisplay:10.37,2013-04-01 19:58:00,
2013-04-01 12:13:00,33.9,30.2,30.12,WNW,296,0.0,6.0,86,0.00,CLR,,0.00,WeatherDisplay:10.37,2013-04-01 20:13:00,
2013-04-01 12:28:00,34.7,30.6,30.12,SW,233,5.0,7.0,85,0.00,CLR,,0.00,WeatherDisplay:10.37,2013-04-01 20:28:00,
2013-04-01 12:43:00,34.8,30.5,30.12,NW,320,3.0,7.0,84,0.00,CLR,,0.00,WeatherDisplay:10.37,2013-04-01 20:43:00,
2013-04-01 12:58:00,34.9,30.3,30.12,NW,306,0.0,4.0,83,0.00,CLR,,0.00,WeatherDisplay:10.37,2013-04-01 20:58:00,
2013-04-01 13:13:00,35.8,30.8,30.11,ENE,69,1.0,6.0,82,0.00,CLR,,0.00,WeatherDisplay:10.37,2013-04-01 21:13:00,
2013-04-01 13:28:00,36.5,30.6,30.11,NE,52,2.0,7.0,79,0.00,CLR,,0.00,WeatherDisplay:10.37,2013-04-01 21:28:00,
2013-04-01 13:43:00,36.7,30.5,30.11,ENE,72,2.0,8.0,78,0.00,CLR,,0.00,WeatherDisplay:10.37,2013-04-01 21:43:00,
2013-04-01 13:58:00,36.8,30.3,30.11,ENE,63,5.0,8.0,77,0.00,CLR,,0.00,WeatherDisplay:10.37,2013-04-01 21:58:00,
2013-04-01 14:13:00,37.3,30.4,30.11,NE,48,0.0,7.0,76,0.00,CLR,,0.00,WeatherDisplay:10.37,2013-04-01 22:13:00,
2013-04-01 14:28:00,37.2,28.3,30.11,NE,39,2.0,7.0,70,0.00,CLR,,0.00,WeatherDisplay:10.37,2013-04-01 22:28:00,
2013-04-01 14:43:00,37.3,29.1,30.10,NE,54,2.0,8.0,72,0.00,CLR,,0.00,WeatherDisplay:10.37,2013-04-01 22:43:00,
2013-04-01 14:58:00,37.4,28.5,30.10,ENE,58,5.0,10.0,70,0.00,CLR,,0.00,WeatherDisplay:10.37,2013-04-01 22:58:00,
2013-04-01 15:13:00,37.3,28.1,30.10,NNE,12,2.0,9.0,69,0.00,CLR,,0.00,WeatherDisplay:10.37,2013-04-01 23:13:00,
2013-04-01 15:28:00,37.4,27.8,30.10,NE,54,5.0,9.0,68,0.00,CLR,,0.00,WeatherDisplay:10.37,2013-04-01 23:28:00,
2013-04-01 15:43:00,37.5,27.8,30.10,NE,46,5.0,10.0,68,0.00,CLR,,0.00,WeatherDisplay:10.37,2013-04-01 23:43:00,
2013-04-01 15:58:00,37.4,27.4,30.10,NE,44,7.0,12.0,67,0.00,CLR,,0.00,WeatherDisplay:10.37,2013-04-01 23:58:00,
2013-04-01 16:13:00,37.8,27.4,30.10,NE,39,5.0,10.0,66,0.00,CLR,,0.00,WeatherDisplay:10.37,2013-04-02 00:13:00,
2013-04-01 16:28:00,37.9,26.8,30.10,NNE,13,1.0,8.0,64,0.00,CLR,,0.00,WeatherDisplay:10.37,2013-04-02 00:28:00,
2013-04-01 16:43:00,37.4,26.4,30.09,NE,44,2.0,8.0,64,0.00,CLR,,0.00,WeatherDisplay:10.37,2013-04-02 00:43:00,
2013-04-01 16:58:00,37.5,26.8,30.09,NE,41,6.0,9.0,65,0.00,CLR,,0.00,WeatherDisplay:10.37,2013-04-02 00:58:00,
2013-04-01 17:13:00,37.3,26.2,30.10,NNE,31,6.0,9.0,64,0.00,CLR,,0.00,WeatherDisplay:10.37,2013-04-02 01:13:00,
2013-04-01 17:28:00,37.1,26.0,30.09,NE,36,5.0,10.0,64,0.00,CLR,,0.00,WeatherDisplay:10.37,2013-04-02 01:28:00,
2013-04-01 17:43:00,37.8,26.7,30.10,NE,44,5.0,8.0,64,0.00,CLR,,0.00,WeatherDisplay:10.37,2013-04-02 01:43:00,
2013-04-01 17:58:00,36.9,25.1,30.09,NNE,22,6.0,11.0,62,0.00,CLR,,0.00,WeatherDisplay:10.37,2013-04-02 01:58:00,
2013-04-01 18:13:00,36.1,25.1,30.09,NNE,18,3.0,10.0,64,0.00,CLR,,0.00,WeatherDisplay:10.37,2013-04-02 02:13:00,
2013-04-01 18:28:00,36.2,25.2,30.09,NE,40,5.0,9.0,64,0.00,CLR,,0.00,WeatherDisplay:10.37,2013-04-02 02:28:00,
2013-04-01 18:43:00,36.0,25.0,30.09,NE,37,7.0,10.0,64,0.00,CLR,,0.00,WeatherDisplay:10.37,2013-04-02 02:43:00,
2013-04-01 18:58:00,35.5,24.9,30.09,NE,40,7.0,13.0,65,0.00,CLR,,0.00,WeatherDisplay:10.37,2013-04-02 02:58:00,
2013-04-01 19:13:00,35.7,25.1,30.09,NE,39,7.0,10.0,65,0.00,CLR,,0.00,WeatherDisplay:10.37,2013-04-02 03:13:00,
2013-04-01 19:28:00,36.0,25.7,30.09,NE,44,6.0,9.0,66,0.00,CLR,,0.00,WeatherDisplay:10.37,2013-04-02 03:28:00,
2013-04-01 19:43:00,37.2,25.8,30.09,NE,44,5.0,8.0,63,0.00,CLR,,0.00,WeatherDisplay:10.37,2013-04-02 03:43:00,
2013-04-01 19:58:00,36.5,25.1,30.08,NE,52,6.0,11.0,63,0.00,CLR,,0.00,WeatherDisplay:10.37,2013-04-02 03:58:00,
2013-04-01 20:13:00,35.0,24.1,30.08,NE,46,5.0,10.0,64,0.00,CLR,,0.00,WeatherDisplay:10.37,2013-04-02 04:13:00,
2013-04-01 20:28:00,33.6,23.1,30.08,NE,47,3.0,9.0,65,0.00,CLR,,0.00,WeatherDisplay:10.37,2013-04-02 04:28:00,
2013-04-01 20:43:00,32.4,22.7,30.09,NE,39,5.0,9.0,67,0.00,CLR,,0.00,WeatherDisplay:10.37,2013-04-02 04:43:00,
2013-04-01 20:58:00,31.5,22.2,30.09,NE,34,3.0,8.0,68,0.00,CLR,,0.00,WeatherDisplay:10.37,2013-04-02 04:58:00,
2013-04-01 21:13:00,30.8,21.5,30.09,NE,50,3.0,6.0,68,0.00,CLR,,0.00,WeatherDisplay:10.37,2013-04-02 05:13:00,
2013-04-01 21:28:00,29.9,21.0,30.10,NE,49,2.0,7.0,69,0.00,CLR,,0.00,WeatherDisplay:10.37,2013-04-02 05:28:00,
2013-04-01 21:43:00,29.5,20.9,30.10,NE,45,2.0,6.0,70,0.00,CLR,,0.00,WeatherDisplay:10.37,2013-04-02 05:43:00,
2013-04-01 21:58:00,29.3,20.7,30.11,NNE,23,3.0,5.0,70,0.00,CLR,,0.00,WeatherDisplay:10.37,2013-04-02 05:58:00,
2013-04-01 22:13:00,29.2,20.9,30.11,NNE,18,3.0,7.0,71,0.00,CLR,,0.00,WeatherDisplay:10.37,2013-04-02 06:13:00,
2013-04-01 22:28:00,28.8,20.6,30.11,NE,37,0.0,5.0,71,0.00,CLR,,0.00,WeatherDisplay:10.37,2013-04-02 06:28:00,
2013-04-01 22:43:00,28.2,20.0,30.11,NE,55,1.0,5.0,71,0.00,CLR,,0.00,WeatherDisplay:10.37,2013-04-02 06:43:00,
2013-04-01 22:58:00,27.4,19.6,30.12,NE,47,0.0,2.0,72,0.00,CLR,,0.00,WeatherDisplay:10.37,2013-04-02 06:58:00,
2013-04-01 23:13:00,26.8,19.3,30.12,NE,50,2.0,7.0,73,0.00,CLR,,0.00,WeatherDisplay:10.37,2013-04-02 07:13:00,
2013-04-01 23:28:00,27.2,19.6,30.12,NE,38,3.0,6.0,73,0.00,CLR,,0.00,WeatherDisplay:10.37,2013-04-02 07:28:00,
2013-04-01 23:43:00,26.9,19.4,30.12,NE,35,0.0,5.0,73,0.00,CLR,,0.00,WeatherDisplay:10.37,2013-04-02 07:43:00,
2013-04-01 23:58:00,26.7,19.2,30.12,NNE,19,0.0,3.0,73,0.00,CLR,,0.00,WeatherDisplay:10.37,2013-04-02 07:58:00,